This demonstration page uses our WeatherBlox Daily Observations layout. Learn more.

Left ArrowRight Arrow

41.86663, -103.66717

Hourly Observations for July 7, 2020

Temp ( °F °C ) Dew Point ( °F °C ) Humidity (%) Winds ( mph kmh ) Pressure ( in mb ) Visibility ( mi km ) Precip ( " mm )
12:53 am 00:53 Clear 74 23.3 50 10 43 43 SSE 17 28 29.78 1009 10 16 N/A
1:53 am 01:53 Clear 77 25 52 11.1 42 42 SSE 20 31 29.76 1008 10 16 N/A
2:53 am 02:53 Clear 72 22.2 53 11.7 52 52 ENE 13 20 29.76 1008 10 16 N/A
3:53 am 03:53 Clear 73 22.8 54 12.2 51 51 SE 7 11 29.75 1007 10 16 N/A
4:53 am 04:53 Clear 64 17.8 55 12.8 73 73 E 10 17 29.76 1008 10 16 N/A
5:53 am 05:53 Sunny 62 16.7 57 13.9 84 84 undefined N/A 29.79 1009 10 16 N/A
6:53 am 06:53 Sunny 66 18.9 58 14.4 75 75 E 9 15 29.78 1009 10 16 N/A
7:53 am 07:53 Sunny 72 22.2 59 15 64 64 ESE 13 20 29.80 1009 10 16 N/A
8:53 am 08:53 Sunny 77 25 58 14.4 52 52 SE 15 24 29.80 1009 10 16 N/A
9:53 am 09:53 Sunny 81 27.2 58 14.4 45 45 SE 10 17 29.78 1008 10 16 N/A
10:53 am 10:53 Sunny 86 30 61 16.1 43 43 ESE 14 22 29.75 1008 10 16 N/A
11:53 am 11:53 Sunny 91 32.8 62 16.7 38 38 VRB 6 9 29.71 1006 10 16 N/A
12:53 pm 12:53 Sunny 100 37.8 56 13.3 23 23 SW 10 17 29.65 1004 10 16 N/A
1:53 pm 13:53 Sunny 103 39.4 40 4.4 11 11 SSE 7 11 29.62 1003 10 16 N/A
2:33 pm 14:33 Sunny with Nearby Thunderstorms 104 40 40 4.4 11 11 VRB 6 9 29.36 994 10 16 N/A
2:48 pm 14:48 Sunny 104 40 41 5 12 12 SE 9 15 29.35 994 10 16 N/A
2:53 pm 14:53 Sunny 104 40 40 4.4 11 11 ESE 7 11 29.59 1002 10 16 N/A
3:53 pm 15:53 Sunny 101 38.3 46 7.8 15 15 SSE 15 24 29.59 1002 10 16 N/A
4:03 pm 16:03 Sunny with Nearby Thunderstorms 99 37.2 47 8.3 17 17 SSE 9 15 29.36 994 10 16 N/A
4:30 pm 16:30 Sunny with Thunderstorms 93 34 43 6 17 17 WSW 13 20 29.42 996 10 16 N/A
4:53 pm 16:53 Mostly Cloudy with Thunderstorms 84 28.9 57 13.9 40 40 N 6 9 29.65 1004 8 13 0.06 1.52
5:13 pm 17:13 Mostly Sunny 93 33.9 51 10.6 24 24 undefined N/A 29.41 996 10 16 0.00 0.00
5:44 pm 17:44 Sunny 97 36 48 9 19 19 S 14 22 29.36 994 10 16 N/A
5:53 pm 17:53 Sunny 96 35.6 47 8.3 19 19 S 15 24 29.59 1002 10 16 0.00 0.00
6:53 pm 18:53 Sunny 90 32.2 48 8.9 24 24 S 29 46 29.60 1003 10 16 N/A
7:53 pm 19:53 Sunny 87 30.6 44 6.7 22 22 S 22 35 29.60 1002 10 16 N/A
8:53 pm 20:53 Clear 85 29.4 44 6.7 24 24 SSE 15 24 29.59 1002 10 16 N/A
9:53 pm 21:53 Clear 80 26.7 48 8.9 33 33 E 7 11 29.65 1004 10 16 N/A
10:53 pm 22:53 Clear 82 27.8 53 11.7 37 37 S 16 26 29.62 1003 10 16 N/A
11:53 pm 23:53 Clear 80 26.7 52 11.1 38 38 SSW 25 41 29.62 1003 10 16 N/A

Powered by AerisWeather